STARLINK-1548, 46054

Orbit data source: Space-Track

STARLINK-1548, 46054 is a payload satellite owned by SpaceX/Seattle (US) in LEO that was launched on Fri, 07 Aug 2020 UTC via an FALCON 9 launch vehicle from the Air Force Eastern Test Range (AFETR). Payload-class satellites include a variety of spacecraft equipped with specific instruments for various scientific and technological missions. These include communications satellites like Starlink; space stations such as the ISS; scientific satellites like the Hubble; Earth observation satellites from companies like Planet Labs, Umbra, and HawkEye 360; GPS; miniature CubeSats for education and research; and military/defense satellites.

Loading next visibility...
Identifier
46054, 2020-055AD
Orbit
LEO
Country
Flag of USUS
Related business
Manufacturer
SpaceX/Seattle
Mission
Operational Commercial Communications
Bus & Motor
STARLINK, Unknown motor
Mass
260 kg wet, ~248 kg dry
Launch date (UTC)
2020-08-07 (6 years ago)
Launch vehicle
FALCON 9
Launch site
Air Force Eastern Test Range (AFETR)
Object type
Payload
Rocket body
Debris
Shape & HBR
Box + 1 Pan, 10.1 m
Radar Cross Section
13.562 m², Large (>1 m²)

Expand to show TLE details & history
Last TLE update: 10 hours ago

TLE from 10 hours ago
0 STARLINK-1548
1 46054U 20055AD  26263.37767242  .00000158  00000-0  16865-4 0  9992
2 46054  53.1598 288.0487 0001317  82.7843 277.3308 15.31700399338904
Epoch: 2026-09-20T09:03Z
TLE epoch observation values (Epoch: 2026-09-20T09:03:50.897Z)
Latitude
-0.00001°
Longitude
152.8139°
Altitude
471.524 km
Speed
7.632 km/s
True Right ascension
19h 12m 11s
True Declination
0° 00' 00"
Sunlit
Object was in daylight at epoch
Visualization orbit readout
Latitude
Unknown
Longitude
Unknown
Altitude
Unknown
Speed
Unknown
Apparent Right ascension
Unknown
Apparent Declination
Unknown
Sunlit
N/A
Visualization observer readout
Local Sidereal Time
12:13:20
Azimuth
Unknown
Elevation
Unknown
Doppler factor
Unknown
Orbital elements
Apogee altitude
471.897 km
Perigee altitude
470.093 km
Semi-major axis
6,849.132 km
Eccentricity
0.00013
Inclination
53.1598°
RAAN
288.0487°
Arg. of periapsis
82.7843°
True anomaly
277.31583°
Mean anomaly
277.3308°
Eccentric anomaly
277.32332°
Mean motion
3.82904 °/min
Orbital period
94.02 mins
BSTAR
0.000016865
Loading maneuver chart data...
Computing Atmospheric mass density...

Documentation

Showing up to 5 results
|